Regional Weather Roundup
Issued by NWS

Home | Current Version | Previous Version | Graphics & Text | Print | Product List | Glossary On
Versions: 1 2 3 4 5 6 7 8 9 10 11 12 13 14 15 16 17 18 19 20 21 22 23 24 25 26 27 28 29 30 31 32 33 34 35 36 37 38 39 40 41 42 43 44 45 46 47 48 49 50
000
ASUS43 KLMK 020802
RWRKY
KENTUCKY REGIONAL WEATHER ROUNDUP
NATIONAL WEATHER SERVICE LOUISVILLE KY
400 AM EDT THU APR 02 2015

NOTE "FAIR" INDICATES FEW OR NO CLOUDS BELOW 12,000 FEET
WITH NO SIGNIFICANT WEATHER AND/OR OBSTRUCTIONS TO VISIBILITY.

KYZ001>023-026-027-061>063-070>075-020900-
WESTERN AND SOUTH CENTRAL KENTUCKY

CITY           SKY/WX    TMP DP  RH WIND       PRES   REMARKS
PADUCAH        RAIN      62  59  90 W15       29.90R
HENDERSON      CLOUDY    64  39  39 S8        29.87F
OWENSBORO      CLOUDY    62  35  36 S10       29.90F
HOPKINSVILLE   CLOUDY    65  40  40 SE7       29.92F
BOWLING GREEN  CLOUDY    59  32  36 CALM      29.95F
GLASGOW        NOT AVBL
$$

KYZ024-025-028>034-038-045-046-053-020900-
NORTH CENTRAL KENTUCKY

CITY           SKY/WX    TMP DP  RH WIND       PRES   REMARKS
LOUISVILLE/SDF CLOUDY    56  30  37 SE7       29.93F
LOUISVILLE/LOU CLOUDY    58  26  29 SE7       29.93F
FORT KNOX      CLOUDY    59  28  31 S12       29.91F HAZE
$$

KYZ035>037-039>044-047>052-055>060-089>105-020900-
NORTHEAST KENTUCKY

CITY           SKY/WX    TMP DP  RH WIND       PRES   REMARKS
LEXINGTON      MOCLDY    54  23  30 SE12      29.97F
COVINGTON      CLOUDY    52  24  33 S9        29.94F
FRANKFORT      CLOUDY    53  26  35 SE6       29.95F
$$

KYZ054-064>069-076>088-106>120-020900-
SOUTHEAST KENTUCKY

CITY           SKY/WX    TMP DP  RH WIND       PRES   REMARKS
JACKSON        PTCLDY    54  17  23 S6        30.02F
LONDON         CLEAR     50  26  39 S3        30.02F
SOMERSET       NOT AVBL
MIDDLESBORO    NOT AVBL
MONTICELLO     SUNNY     60  28  29 S8        30.03F
$$




USA.gov is the U.S. government's official web portal to all federal, state and local government web resources and services.